EHI
1 1 1 0 0 0 0 0 0 0 0 0 0 0 0 0 0 0 0 0 0 0 1 2 3 2 1 1 4 6 6 6 4 3 2 1 0 0 1 1 0 0 0 0 0 0 0 1 3
0 0 0 0 0 0 0 0 0 0 0 0 0 0 0 0 0 0 0 0 0 0 0 1 2 2 1 1 3 4 5 5 4 3 2 1 1 1 2 2 1 0 0 0 0 0 1 2 2
0 0 0 0 0 0 0 0 0 0 0 0 0 0 0 0 0 0 0 0 0 0 0 1 1 1 1 1 1 1 2 3 3 3 3 3 2 2 2 2 1 0 0 0 0 0 1 1 1
0 0 0 0 0 0 0 0 0 0 0 0 0 0 0 0 0 0 0 0 0 0 0 0 0 0 0 0 0 0 1 1 2 2 3 3 3 3 1 1 0 0 0 0 0 0 0 0 0
0 0 0 0 0 0 0 0 0 0 0 0 0 0 0 0 0 0 0 0 0 0 0 0 0 0 0 0 0 0 0 1 1 1 2 2 3 2 1 0 0 0 0 0 0 0 0 0 0
0 0 0 0 0 0 0 0 0 0 0 0 0 0 0 0 0 0 0 0 0 0 0 0 0 0 0 0 0 0 0 1 1 1 1 1 2 2 1 0 0 0 0 0 0 0 0 0 0
0 0 0 0 0 0 0 0 0 0 0 0 0 0 0 0 0 0 0 0 0 0 0 0 0 0 0 0 0 0 0 0 1 2 2 1 1 1 0 0 0 0 0 0 0 0 0 0 0
0 0 0 0 0 0 0 0 0 0 0 0 0 0 0 0 0 0 0 0 0 0 0 0 0 0 0 0 0 0 0 0 1 2 2 1 0 0 0 0 0 0 0 0 0 0 0 0 0
0 0 0 0 0 0 0 0 0 0 0 0 0 0 0 0 0 0 0 0 0 0 0 0 0 0 0 0 0 0 0 0 0 1 1 0 0 0 0 0 0 0 0 0 0 0 0 0 0
0 0 0 0 0 0 0 0 0 0 0 0 0 0 0 0 0 0 0 0 0 0 0 0 0 0 0 0 0 0 0 0 0 0 0 0 0 0 0 0 0 0 0 0 0 0 0 0 0
0 0 0 0 0 0 0 0 0 0 0 0 0 0 0 0 0 0 0 0 0 0 0 0 0 0 0 0 0 0 0 0 0 0 0 0 0 0 0 0 0 0 0 0 0 0 0 0 0
0 0 0 0 0 0 0 0 0 0 0 0 0 0 0 0 0 0 0 0 0 0 0 0 0 0 0 0 0 0 0 0 0 0 0 0 0 0 0 0 0 0 0 0 0 0 0 0 0
0 0 0 0 0 0 0 0 0 0 0 0 0 0 0 0 0 0 0 0 0 0 0 0 0 0 0 0 0 0 0 0 0 0 0 0 0 0 0 0 0 0 0 0 0 0 0 0 0
0 0 0 0 0 0 0 0 0 0 0 0 0 0 0 0 0 0 0 0 0 0 0 0 0 0 0 0 0 0 0 0 0 0 0 0 0 0 0 0 0 0 0 0 0 0 0 0 0
0 0 0 0 0 0 0 0 0 0 0 0 0 0 0 0 0 0 0 1 1 0 0 0 0 0 0 0 0 0 0 0 0 0 0 0 0 0 0 0 0 0 0 0 0 0 0 0 0
0 0 0 0 0 0 0 0 0 0 0 0 0 0 0 0 0 0 1 2 2 1 0 0 0 0 0 0 0 0 0 0 0 0 0 0 0 0 0 0 0 0 0 0 0 0 0 0 0
0 0 0 0 0 0 0 0 0 0 0 0 0 0 0 0 0 0 1 2 3 2 1 0 0 0 0 0 0 0 0 0 0 0 0 0 0 0 0 0 0 0 0 0 0 0 0 0 0
0 0 0 0 0 0 0 0 0 0 0 0 0 0 0 0 0 0 0 1 2 2 1 0 0 0 0 0 0 0 0 0 0 0 0 0 0 0 0 0 0 0 0 0 0 0 0 0 0
0 0 0 0 0 0 0 0 0 0 0 0 0 0 0 0 0 0 0 0 1 1 0 0 0 0 0 0 0 0 0 0 0 0 0 0 0 0 0 0 0 0 0 0 0 0 0 0 0
0 0 0 0 0 0 0 0 0 0 0 0 0 0 0 0 0 0 0 0 0 0 0 0 0 0 0 0 0 0 0 0 0 0 0 0 0 0 0 0 0 0 0 0 0 0 0 0 0
0 0 0 0 0 0 0 0 0 0 0 0 0 0 0 0 0 0 0 0 0 0 0 0 0 0 0 0 0 0 0 0 0 0 0 0 0 0 0 0 0 0 0 0 0 0 0 0 0
0 0 0 0 0 0 0 0 0 0 0 0 0 0 0 0 0 0 0 0 0 0 0 0 0 0 0 0 0 0 0 0 0 0 0 0 0 0 0 0 0 0 0 0 0 0 0 0 0
0 0 0 0 0 0 0 0 0 0 0 0 0 0 0 0 0 0 0 0 0 0 0 0 0 0 0 0 0 0 0 0 0 0 0 0 0 0 0 0 0 0 0 0 0 0 0 0 0
0 0 0 0 0 0 0 0 0 0 0 0 0 0 0 0 0 0 0 0 0 0 0 0 0 0 0 0 0 0 0 0 0 0 0 0 0 0 0 0 0 0 0 0 0 0 0 0 0
0 0 0 0 0 0 0 0 0 0 0 0 0 0 0 0 0 0 0 0 0 0 0 0 0 0 0 0 0 0 0 0 0 0 0 0 0 0 0 0 0 0 0 0 0 0 0 0 0
0 0 0 0 0 0 0 0 0 0 0 0 0 0 0 0 0 0 0 0 1 1 0 0 0 0 0 0 0 0 0 0 0 0 0 0 0 0 0 0 0 0 0 0 0 0 0 0 0
0 0 0 0 0 0 0 0 0 0 0 0 0 0 0 0 0 0 0 1 2 2 1 0 0 0 0 0 0 0 0 0 0 0 0 0 0 0 0 0 0 0 0 0 0 0 0 0 0
0 0 0 0 0 0 0 0 0 0 0 0 0 0 0 0 0 0 0 1 2 3 2 1 0 0 0 0 0 0 0 0 0 0 0 0 0 0 0 0 0 0 0 0 0 0 0 0 0
0 0 0 0 0 0 0 0 0 0 0 0 0 0 0 0 0 0 0 1 2 3 2 1 0 0 0 0 0 0 0 0 0 0 0 0 0 0 0 0 0 0 0 0 0 0 0 0 0
0 0 0 0 0 0 0 0 0 0 0 0 0 0 0 0 0 0 0 1 2 3 2 1 0 0 0 0 0 0 0 0 0 0 0 0 0 0 0 0 0 0 0 0 0 0 0 0 0
Wind_Speed
3 4 3 4 6 5 2 2 1 2 3 2 3 5 5 3 2 2 1 1 1 1 1 2 4 5 6 6 6 6 6 7 8 8 8 8 9 9 9 9 9 9 9 8 8 8 8 9 9
3 3 4 5 5 3 1 2 1 1 3 2 4 4 5 3 2 2 0 0 2 2 1 2 5 6 6 6 6 6 6 7 8 8 8 8 9 9 9 9 9 9 9 9 9 9 9 9 9
3 3 4 4 4 3 2 0 2 2 2 2 3 4 3 2 1 1 1 2 2 2 1 2 5 6 6 6 6 6 7 8 8 8 8 8 8 9 9 9 9 9 9 9 9 9 9 9 9
3 4 5 5 3 1 1 2 3 3 2 4 3 4 3 2 1 2 3 3 3 2 2 2 5 6 6 6 6 7 7 8 8 7 8 8 8 8 8 9 9 9 8 8 9 8 9 9 9
4 4 5 4 2 1 1 1 2 3 2 3 3 3 2 4 3 4 4 4 3 2 2 1 5 5 6 6 6 7 7 8 7 7 7 7 7 7 7 8 8 8 8 8 8 8 8 9 9
4 4 5 2 1 1 1 1 3 3 3 2 3 3 1 2 3 3 3 3 3 2 2 3 4 5 6 6 6 7 6 7 7 7 7 7 6 6 7 7 8 8 7 8 8 8 9 9 9
4 4 3 3 2 1 1 2 3 3 2 1 2 3 1 1 1 2 3 3 3 3 3 3 3 3 4 5 5 5 6 6 6 7 6 6 6 6 6 7 7 7 7 8 8 8 9 9 9
4 5 3 1 2 1 1 2 2 3 2 2 2 4 3 2 1 3 4 4 3 3 2 2 3 3 3 3 4 5 4 5 5 6 6 6 6 6 6 6 7 7 8 8 9 9 9 10 10
4 5 2 2 3 2 2 3 2 2 4 2 2 2 2 5 5 5 4 3 2 2 2 2 2 2 2 2 3 4 4 5 5 4 6 5 3 3 4 5 7 8 8 8 8 9 10 10 10
5 4 2 2 3 3 2 3 3 3 3 2 3 4 5 6 6 5 3 2 1 0 0 1 1 1 2 2 3 2 3 3 3 3 3 3 3 3 3 5 7 8 8 8 9 10 9 7 5
3 3 1 1 2 4 3 2 2 5 1 3 4 5 5 5 4 4 3 2 2 1 1 1 1 1 1 1 1 1 1 2 2 3 3 2 2 2 3 2 3 4 6 5 6 6 4 4 4
4 2 2 2 2 3 3 3 3 2 2 3 5 7 6 5 5 4 3 2 1 1 1 1 2 1 1 1 1 1 1 1 1 1 2 2 2 3 2 2 2 3 2 3 3 3 4 5 5
3 2 3 4 5 5 5 4 3 1 1 5 7 6 6 5 3 2 2 1 1 1 1 1 2 2 1 1 1 1 1 1 1 1 2 2 2 2 2 2 2 3 3 3 3 3 4 4 4
3 4 3 3 4 3 5 2 2 0 3 5 6 5 4 4 3 2 1 1 1 2 2 1 2 2 2 1 1 1 1 1 1 1 1 2 2 2 3 3 3 3 3 3 3 3 4 3 4
3 4 4 2 2 1 3 3 0 2 5 5 4 4 3 3 2 3 3 2 2 2 2 2 3 2 2 2 1 1 1 1 1 1 1 2 3 3 3 3 2 2 3 3 3 4 4 4 4
3 4 1 2 0 1 3 2 2 2 5 4 3 3 3 2 3 3 2 2 2 2 2 2 3 3 2 2 1 1 1 2 1 1 2 3 3 3 3 3 2 2 3 3 3 3 4 3 3
3 1 1 2 1 2 3 3 2 2 5 4 4 3 3 2 2 2 2 2 2 3 2 2 2 3 3 2 2 2 2 2 1 1 2 2 3 3 4 3 2 2 3 2 3 3 3 3 3
3 2 1 3 1 3 2 3 3 2 4 5 4 3 3 4 4 3 2 2 2 2 2 3 3 3 3 2 2 2 2 2 2 1 1 2 3 4 4 3 2 2 3 2 2 3 3 2 2
4 3 2 2 2 3 3 3 4 2 3 4 5 5 5 6 4 2 1 2 2 2 2 2 3 3 3 2 2 1 1 1 1 1 1 2 3 3 3 3 3 2 2 2 2 3 3 2 1
3 2 2 1 1 3 1 3 3 3 4 6 7 7 7 5 3 2 1 1 2 2 2 2 3 3 3 2 2 1 2 1 1 0 1 1 2 3 3 3 3 2 2 3 2 3 2 1 1
2 4 4 3 1 1 1 4 3 2 2 3 4 5 6 7 6 5 3 3 2 3 3 3 4 3 3 3 3 2 2 2 1 1 1 0 2 2 3 3 3 2 3 3 2 2 3 2 1
4 4 4 3 3 1 1 3 5 3 3 4 5 5 6 6 6 6 5 4 4 4 3 3 3 3 3 4 4 3 2 2 2 1 1 0 1 2 2 2 2 2 2 2 2 2 2 3 1
3 2 3 2 2 1 1 1 7 1 3 6 7 7 7 7 7 6 6 6 4 3 3 3 3 3 3 3 4 4 2 2 1 1 1 1 0 1 2 3 2 2 2 2 2 2 2 2 2
4 5 5 4 3 1 3 3 6 4 6 5 6 6 7 7 6 6 5 4 3 2 2 2 3 3 3 3 4 4 4 3 2 1 1 1 1 1 2 2 2 2 2 2 2 2 3 2 2
3 5 3 3 2 4 2 2 7 5 5 6 6 6 6 5 5 5 4 4 3 3 3 3 4 3 3 3 3 4 4 4 4 3 3 2 1 1 2 2 2 2 2 2 2 2 2 2 3
3 6 5 3 3 4 1 4 7 4 3 3 3 3 3 4 5 5 6 5 4 4 3 4 4 4 3 3 3 3 3 3 3 3 3 3 2 2 2 2 3 3 3 3 2 2 2 2 2
4 2 4 5 1 1 4 5 7 1 2 1 1 2 3 4 5 5 5 5 4 4 4 4 5 4 3 3 3 2 2 3 3 3 2 2 2 2 2 3 3 3 3 3 3 2 2 2 2
4 7 4 4 3 2 4 4 5 4 3 2 1 2 3 3 3 4 4 4 4 4 3 3 3 4 3 3 3 2 2 2 2 2 3 2 2 2 2 2 2 2 2 3 3 2 2 2 2
3 3 4 3 4 4 2 6 5 6 5 4 4 3 4 4 3 3 3 3 3 3 3 3 3 3 2 2 2 2 2 1 1 2 3 2 2 2 2 2 3 3 3 3 3 3 3 3 2
3 4 6 4 3 4 3 8 4 3 4 3 3 3 2 3 3 3 3 2 2 3 3 3 4 4 3 3 3 3 2 1 1 1 2 2 2 2 2 2 2 3 3 3 4 4 3 4 4
Wind_Direction
102 95 85 63 57 53 46 349 5 48 55 44 61 78 88 78 80 122 289 116 112 107 87 121 116 109 106 106 103 101 99 100 100 102 99 97 96 96 94 90 86 85 87 83 82 79 78 77 74
108 97 62 61 79 76 352 337 54 56 132 125 69 68 72 63 60 94 347 218 114 121 110 121 110 107 103 105 104 102 102 102 102 101 100 99 97 96 93 89 85 82 84 82 78 76 77 78 77
104 65 79 72 86 137 157 131 125 83 93 84 74 58 71 67 90 150 216 139 102 90 85 119 116 112 109 107 105 103 104 106 104 101 99 99 97 96 93 89 84 81 80 79 74 73 75 77 75
86 50 56 71 81 128 168 167 143 105 58 46 86 67 54 24 139 163 139 117 100 81 71 121 123 117 112 107 104 106 105 102 100 99 98 97 98 96 94 91 87 82 80 78 76 73 76 75 76
64 77 66 63 55 30 50 107 108 90 63 43 78 88 32 2 66 104 116 112 106 83 66 95 116 114 116 114 109 108 106 104 102 98 98 95 95 96 95 94 91 84 81 77 74 73 75 76 77
60 69 84 98 59 21 42 79 93 78 75 63 82 95 40 26 77 106 107 96 90 90 71 62 103 110 107 105 103 102 106 104 101 96 95 93 92 92 93 91 89 85 82 77 72 73 77 75 74
97 89 107 131 118 57 96 95 106 113 94 90 108 101 77 39 83 113 99 84 76 77 76 59 54 70 90 97 100 101 96 95 96 91 85 83 83 84 86 86 84 84 80 76 72 69 74 72 72
113 97 89 112 127 148 119 95 92 100 105 89 98 128 176 208 124 93 80 71 68 67 68 66 55 53 55 59 76 84 89 90 86 82 79 73 69 68 74 73 78 80 76 72 70 69 74 73 70
86 78 113 181 164 173 135 109 85 79 95 68 62 130 155 126 117 97 78 59 56 77 55 63 59 46 43 45 55 57 61 62 61 61 64 59 42 42 57 71 75 74 71 69 68 67 70 67 65
78 107 188 204 166 142 110 109 134 104 81 63 56 59 93 113 125 124 129 141 150 177 115 89 76 55 41 43 50 39 48 46 48 49 49 45 39 41 53 56 67 67 65 65 65 64 63 59 52
93 135 153 87 116 117 111 93 100 121 132 195 163 140 124 119 124 139 152 165 192 204 190 140 136 89 68 47 55 43 43 46 50 53 57 57 48 46 43 41 45 51 56 52 53 54 53 56 54
93 70 105 106 99 100 114 116 98 115 208 166 144 139 135 137 149 163 169 176 157 137 190 170 150 119 97 82 72 69 55 58 62 57 65 73 66 57 54 53 44 48 53 58 53 58 57 57 55
86 92 78 89 84 91 94 93 110 59 89 107 117 125 140 153 164 176 178 167 133 151 194 189 157 142 124 105 95 92 85 87 89 67 72 92 95 87 74 65 54 55 61 65 61 62 63 61 58
103 94 80 69 70 74 94 74 90 91 113 117 129 146 162 168 170 163 176 184 179 187 198 180 158 155 143 136 127 97 79 84 80 78 90 100 100 95 88 79 65 58 63 70 73 73 71 63 61
96 80 47 29 56 83 98 31 323 166 133 141 155 164 177 197 188 201 209 197 188 189 189 172 166 150 145 145 137 98 76 90 92 92 92 98 103 102 101 94 80 67 68 74 72 65 63 62 57
69 67 34 314 79 102 112 254 272 153 147 165 180 184 196 226 226 229 222 196 166 159 162 183 165 147 145 137 118 98 82 88 93 94 91 95 100 104 99 95 86 78 81 80 80 69 69 59 54
49 107 235 292 214 135 139 231 264 152 158 183 196 200 203 231 258 254 226 198 168 166 165 158 148 149 144 127 101 85 76 72 77 88 93 103 108 109 104 100 89 89 89 79 91 72 80 78 65
194 184 218 236 225 132 162 240 266 184 178 200 209 208 211 223 239 238 218 190 164 152 150 151 143 138 130 111 89 70 60 52 57 77 96 118 123 126 119 118 117 115 109 89 84 86 69 81 77
153 155 202 243 206 150 203 247 263 217 196 211 217 215 221 228 238 234 205 161 149 148 147 153 147 147 135 118 118 115 92 51 54 86 108 120 121 126 129 133 134 129 122 123 117 104 88 72 68
142 153 203 296 111 144 216 268 267 211 211 211 212 217 220 225 232 233 222 187 182 188 185 171 167 161 162 147 137 135 132 126 108 54 74 109 129 138 140 140 148 146 130 116 120 124 114 85 61
197 194 191 184 68 72 71 313 287 261 230 231 221 219 216 213 213 216 211 217 205 202 198 193 187 177 166 141 109 89 69 49 41 37 44 62 132 141 135 143 150 149 146 153 160 151 138 142 66
227 218 177 153 128 281 128 288 286 258 259 242 237 228 224 221 211 209 206 211 212 213 204 199 184 176 167 153 146 148 154 170 209 191 164 110 124 140 140 144 148 155 159 161 176 159 145 138 140
199 114 119 125 136 35 350 205 287 286 261 254 240 232 228 219 208 209 209 209 211 206 196 188 175 173 166 166 167 158 159 178 161 131 133 129 126 151 157 166 166 163 167 173 176 155 153 154 154
130 81 66 54 69 301 236 180 278 242 230 247 238 230 226 216 207 209 211 202 200 190 181 168 168 181 173 172 176 168 172 173 157 174 180 189 196 204 195 180 179 178 175 179 186 172 168 171 158
97 95 44 7 8 259 242 193 252 254 235 225 228 226 218 205 198 198 198 200 202 195 191 180 171 188 186 178 185 185 185 183 183 194 197 198 208 222 218 196 193 191 189 181 168 161 175 175 170
168 145 156 196 226 276 297 236 256 268 274 241 220 205 194 196 197 198 201 200 203 201 194 186 181 190 188 185 194 192 184 184 191 198 195 201 210 222 218 202 200 197 184 175 164 164 180 167 179
138 170 162 136 159 268 280 284 297 308 351 20 144 157 195 204 202 202 200 196 196 198 199 195 193 195 192 188 182 181 187 193 196 196 193 205 216 216 203 200 197 190 179 172 164 173 179 156 174
141 144 109 121 151 270 295 278 258 265 262 256 217 207 218 211 205 203 200 200 199 196 189 187 189 196 190 176 180 176 189 197 196 186 189 197 218 215 192 196 195 187 178 174 170 176 175 159 178
120 116 119 119 153 160 265 274 237 228 224 214 221 213 206 199 197 198 202 202 190 178 171 174 183 180 177 180 176 167 179 178 172 193 201 198 212 212 200 203 201 196 187 180 177 189 179 178 183
165 167 151 155 208 173 184 266 282 244 228 204 212 219 212 200 196 194 190 173 166 175 174 177 184 182 189 182 175 184 182 165 168 207 220 205 212 219 214 202 201 206 199 190 191 201 197 192 194